TimeEDT,TemperatureF,Dew PointF,Humidity,Sea Level PressureIn,VisibilityMPH,Wind Direction,Wind SpeedMPH,Gust SpeedMPH,PrecipitationIn,Events,Conditions,WindDirDegrees,DateUTC
12:51 AM,66.0,60.1,81,29.93,10.0,SW,9.2,-,N/A,,Partly Cloudy,230,2012-10-06 04:51:00
1:51 AM,64.9,59.0,81,29.92,10.0,SW,8.1,-,N/A,,Clear,230,2012-10-06 05:51:00
2:51 AM,63.0,59.0,87,29.91,10.0,WSW,5.8,-,N/A,,Clear,250,2012-10-06 06:51:00
3:51 AM,64.0,57.9,80,29.90,10.0,WSW,10.4,-,N/A,,Clear,250,2012-10-06 07:51:00
4:51 AM,64.0,59.0,84,29.90,10.0,WSW,8.1,-,N/A,,Partly Cloudy,250,2012-10-06 08:51:00
5:51 AM,63.0,57.9,84,29.88,10.0,SW,5.8,-,N/A,,Clear,230,2012-10-06 09:51:00
6:51 AM,64.9,59.0,81,29.88,10.0,SW,11.5,-,N/A,,Scattered Clouds,220,2012-10-06 10:51:00
7:51 AM,66.0,61.0,84,29.87,10.0,SW,12.7,-,N/A,,Mostly Cloudy,220,2012-10-06 11:51:00
8:51 AM,69.1,60.1,73,29.87,10.0,SW,13.8,-,N/A,,Mostly Cloudy,220,2012-10-06 12:51:00
9:51 AM,72.0,60.1,66,29.86,10.0,SW,17.3,-,N/A,,Mostly Cloudy,230,2012-10-06 13:51:00
10:51 AM,73.0,61.0,66,29.84,10.0,SSW,15.0,-,N/A,,Mostly Cloudy,200,2012-10-06 14:51:00
11:51 AM,72.0,63.0,73,29.83,10.0,South,16.1,-,N/A,,Mostly Cloudy,190,2012-10-06 15:51:00
12:51 PM,73.0,64.0,73,29.81,10.0,South,17.3,-,N/A,,Mostly Cloudy,190,2012-10-06 16:51:00
1:51 PM,73.9,64.9,73,29.78,10.0,SSW,16.1,-,N/A,,Mostly Cloudy,210,2012-10-06 17:51:00
2:51 PM,73.0,63.0,71,29.78,10.0,SSW,12.7,-,N/A,,Overcast,200,2012-10-06 18:51:00
3:07 PM,75.2,57.2,53,29.78,10.0,West,21.9,25.3,N/A,,Overcast,270,2012-10-06 19:07:00
3:51 PM,73.9,57.9,57,29.79,10.0,West,15.0,-,N/A,,Mostly Cloudy,270,2012-10-06 19:51:00
4:51 PM,72.0,55.9,57,29.81,10.0,WNW,20.7,27.6,N/A,,Mostly Cloudy,290,2012-10-06 20:51:00
5:51 PM,64.9,52.0,63,29.86,10.0,NW,21.9,29.9,N/A,,Mostly Cloudy,320,2012-10-06 21:51:00
6:51 PM,62.1,48.9,62,29.89,10.0,NW,15.0,-,N/A,,Scattered Clouds,310,2012-10-06 22:51:00
7:51 PM,60.1,46.9,62,29.93,10.0,NW,13.8,-,N/A,,Scattered Clouds,320,2012-10-06 23:51:00
8:51 PM,59.0,43.0,55,29.96,10.0,NW,16.1,-,N/A,,Clear,320,2012-10-07 00:51:00
9:51 PM,57.9,42.1,56,29.98,10.0,NW,12.7,-,N/A,,Clear,310,2012-10-07 01:51:00
10:51 PM,55.9,42.1,60,30.00,10.0,NW,10.4,-,N/A,,Clear,320,2012-10-07 02:51:00
11:51 PM,55.0,41.0,59,30.01,10.0,NW,5.8,-,N/A,,Clear,320,2012-10-07 03:51:00